QPF
0.00 0.00 0.00 0.00 0.00 0.00 0.00 0.00 0.00 0.00 0.00 0.00 0.00 0.00 0.00 0.00 0.00 0.00 0.00 0.00 0.00 0.00 0.00 0.00 0.01 0.02 0.03 0.06 0.09 0.10 0.09 0.08 0.09 0.09 0.07 0.06 0.05 0.05 0.05 0.05 0.05 0.05 0.04
0.00 0.00 0.00 0.00 0.00 0.00 0.00 0.00 0.00 0.00 0.00 0.00 0.00 0.00 0.00 0.00 0.00 0.00 0.00 0.00 0.00 0.00 0.00 0.00 0.00 0.01 0.01 0.03 0.07 0.10 0.11 0.09 0.09 0.10 0.10 0.08 0.07 0.08 0.07 0.06 0.06 0.05 0.04
0.00 0.00 0.00 0.00 0.00 0.00 0.00 0.00 0.00 0.00 0.00 0.00 0.00 0.00 0.00 0.00 0.00 0.00 0.01 0.01 0.00 0.00 0.00 0.00 0.00 0.00 0.01 0.01 0.03 0.07 0.10 0.11 0.10 0.09 0.09 0.10 0.10 0.09 0.08 0.06 0.05 0.05 0.04
0.00 0.00 0.00 0.00 0.00 0.00 0.00 0.00 0.00 0.00 0.00 0.00 0.00 0.00 0.00 0.01 0.01 0.00 0.01 0.01 0.01 0.01 0.01 0.00 0.00 0.00 0.00 0.01 0.01 0.03 0.06 0.09 0.10 0.10 0.09 0.10 0.13 0.12 0.11 0.07 0.06 0.05 0.04
0.00 0.00 0.00 0.00 0.00 0.00 0.00 0.00 0.00 0.00 0.00 0.00 0.00 0.00 0.00 0.00 0.00 0.00 0.00 0.00 0.00 0.00 0.00 0.00 0.00 0.00 0.00 0.00 0.01 0.02 0.03 0.05 0.07 0.09 0.10 0.10 0.13 0.16 0.15 0.10 0.08 0.07 0.06
0.00 0.00 0.00 0.00 0.00 0.00 0.00 0.00 0.00 0.00 0.00 0.00 0.00 0.00 0.00 0.00 0.00 0.00 0.00 0.00 0.00 0.00 0.00 0.00 0.00 0.00 0.01 0.00 0.00 0.01 0.02 0.03 0.04 0.05 0.08 0.11 0.12 0.14 0.17 0.16 0.11 0.08 0.06
0.00 0.00 0.00 0.00 0.00 0.00 0.00 0.00 0.00 0.00 0.00 0.00 0.00 0.00 0.00 0.00 0.00 0.00 0.00 0.00 0.00 0.00 0.00 0.00 0.01 0.01 0.01 0.01 0.01 0.01 0.01 0.02 0.03 0.04 0.05 0.07 0.11 0.13 0.17 0.20 0.16 0.12 0.07
0.00 0.00 0.00 0.00 0.00 0.00 0.00 0.00 0.00 0.00 0.00 0.00 0.00 0.00 0.00 0.00 0.00 0.00 0.00 0.00 0.00 0.00 0.00 0.01 0.01 0.01 0.01 0.01 0.01 0.02 0.01 0.02 0.02 0.03 0.04 0.06 0.08 0.14 0.16 0.20 0.19 0.18 0.14
0.00 0.00 0.00 0.00 0.00 0.00 0.00 0.00 0.00 0.00 0.00 0.00 0.00 0.00 0.00 0.00 0.00 0.00 0.00 0.00 0.00 0.00 0.01 0.01 0.01 0.01 0.01 0.01 0.01 0.02 0.02 0.02 0.03 0.03 0.04 0.06 0.09 0.13 0.20 0.25 0.25 0.20 0.18
0.00 0.00 0.00 0.00 0.00 0.00 0.00 0.00 0.00 0.01 0.01 0.01 0.01 0.01 0.01 0.01 0.01 0.01 0.01 0.01 0.01 0.01 0.01 0.01 0.01 0.01 0.02 0.02 0.02 0.01 0.02 0.02 0.02 0.03 0.04 0.04 0.06 0.10 0.18 0.24 0.23 0.19 0.15
0.00 0.00 0.00 0.00 0.00 0.00 0.00 0.00 0.01 0.01 0.01 0.01 0.00 0.01 0.01 0.01 0.02 0.01 0.01 0.02 0.01 0.01 0.02 0.03 0.03 0.02 0.02 0.02 0.02 0.02 0.01 0.02 0.03 0.02 0.03 0.04 0.04 0.07 0.12 0.20 0.24 0.20 0.16
0.00 0.00 0.00 0.00 0.00 0.00 0.00 0.00 0.01 0.01 0.00 0.00 0.00 0.01 0.01 0.01 0.01 0.01 0.02 0.03 0.03 0.03 0.06 0.06 0.06 0.06 0.04 0.03 0.03 0.02 0.02 0.02 0.02 0.02 0.03 0.05 0.04 0.05 0.09 0.15 0.21 0.23 0.18
0.00 0.00 0.00 0.00 0.00 0.00 0.00 0.01 0.01 0.00 0.00 0.01 0.01 0.01 0.01 0.00 0.01 0.02 0.02 0.03 0.04 0.06 0.07 0.06 0.06 0.07 0.04 0.03 0.03 0.03 0.02 0.02 0.02 0.02 0.02 0.03 0.05 0.06 0.08 0.13 0.19 0.22 0.22
0.00 0.00 0.00 0.00 0.00 0.00 0.00 0.00 0.00 0.00 0.01 0.01 0.01 0.01 0.01 0.01 0.01 0.02 0.02 0.03 0.04 0.06 0.05 0.05 0.07 0.09 0.06 0.03 0.03 0.02 0.02 0.03 0.03 0.03 0.02 0.02 0.03 0.06 0.08 0.11 0.18 0.20 0.21
0.00 0.00 0.00 0.00 0.00 0.00 0.00 0.00 0.00 0.00 0.01 0.01 0.01 0.01 0.01 0.01 0.01 0.01 0.02 0.04 0.05 0.07 0.06 0.05 0.06 0.07 0.07 0.04 0.03 0.02 0.02 0.03 0.03 0.03 0.02 0.02 0.03 0.05 0.07 0.09 0.14 0.18 0.17
0.00 0.00 0.00 0.00 0.00 0.00 0.00 0.00 0.00 0.00 0.00 0.00 0.00 0.01 0.01 0.01 0.01 0.01 0.02 0.03 0.05 0.06 0.06 0.05 0.05 0.05 0.05 0.04 0.04 0.03 0.02 0.02 0.02 0.03 0.02 0.02 0.02 0.05 0.07 0.09 0.12 0.15 0.14
0.00 0.00 0.00 0.00 0.00 0.00 0.01 0.01 0.00 0.00 0.00 0.00 0.00 0.00 0.00 0.01 0.01 0.01 0.03 0.03 0.03 0.04 0.04 0.04 0.04 0.04 0.04 0.04 0.04 0.04 0.03 0.02 0.02 0.03 0.03 0.02 0.02 0.03 0.07 0.10 0.12 0.14 0.13
0.00 0.00 0.00 0.00 0.00 0.00 0.00 0.00 0.00 0.01 0.00 0.00 0.00 0.00 0.01 0.01 0.01 0.01 0.02 0.03 0.03 0.03 0.03 0.03 0.03 0.04 0.04 0.04 0.03 0.03 0.03 0.03 0.03 0.02 0.02 0.02 0.03 0.03 0.05 0.09 0.12 0.14 0.14
0.00 0.00 0.00 0.00 0.00 0.00 0.00 0.00 0.00 0.00 0.00 0.00 0.00 0.01 0.01 0.01 0.01 0.02 0.02 0.02 0.03 0.03 0.03 0.04 0.04 0.04 0.04 0.04 0.03 0.03 0.03 0.03 0.03 0.03 0.03 0.02 0.03 0.03 0.04 0.07 0.10 0.14 0.14
0.00 0.00 0.00 0.00 0.00 0.00 0.00 0.00 0.00 0.00 0.00 0.00 0.01 0.01 0.02 0.02 0.02 0.03 0.03 0.03 0.02 0.03 0.03 0.04 0.05 0.04 0.03 0.04 0.03 0.03 0.03 0.03 0.03 0.03 0.03 0.03 0.03 0.03 0.04 0.05 0.07 0.09 0.12
0.00 0.00 0.00 0.00 0.00 0.00 0.00 0.00 0.00 0.00 0.00 0.00 0.01 0.01 0.02 0.02 0.03 0.04 0.04 0.03 0.03 0.03 0.03 0.03 0.03 0.03 0.02 0.03 0.04 0.04 0.03 0.03 0.02 0.02 0.02 0.02 0.03 0.03 0.03 0.04 0.05 0.07 0.09
0.00 0.00 0.00 0.00 0.00 0.00 0.00 0.00 0.00 0.00 0.00 0.00 0.01 0.01 0.02 0.02 0.03 0.03 0.04 0.03 0.03 0.03 0.02 0.03 0.03 0.03 0.02 0.03 0.03 0.04 0.03 0.03 0.02 0.01 0.01 0.02 0.02 0.02 0.02 0.04 0.05 0.06 0.08
0.00 0.00 0.00 0.00 0.00 0.00 0.00 0.00 0.00 0.00 0.00 0.00 0.01 0.01 0.02 0.02 0.03 0.03 0.03 0.02 0.02 0.03 0.03 0.03 0.04 0.04 0.03 0.03 0.04 0.04 0.04 0.03 0.02 0.01 0.01 0.02 0.02 0.02 0.02 0.03 0.04 0.05 0.06
0.00 0.00 0.00 0.00 0.00 0.00 0.00 0.00 0.00 0.00 0.01 0.01 0.01 0.01 0.01 0.02 0.03 0.03 0.02 0.01 0.02 0.02 0.03 0.04 0.04 0.04 0.03 0.02 0.02 0.03 0.04 0.04 0.04 0.03 0.02 0.02 0.02 0.02 0.02 0.03 0.03 0.04 0.05
0.00 0.00 0.00 0.00 0.00 0.00 0.00 0.00 0.00 0.00 0.01 0.01 0.02 0.02 0.02 0.02 0.02 0.02 0.02 0.02 0.02 0.02 0.03 0.04 0.04 0.04 0.03 0.03 0.03 0.04 0.05 0.04 0.04 0.05 0.04 0.03 0.03 0.03 0.03 0.04 0.05 0.05 0.05
0.00 0.00 0.00 0.00 0.00 0.00 0.00 0.00 0.00 0.00 0.01 0.01 0.01 0.01 0.01 0.02 0.03 0.03 0.03 0.03 0.03 0.03 0.02 0.03 0.04 0.04 0.03 0.04 0.04 0.04 0.04 0.04 0.03 0.04 0.04 0.04 0.05 0.06 0.05 0.06 0.06 0.06 0.06
MSLP
1015.23 1015.14 1015.06 1014.96 1014.84 1014.68 1014.47 1014.23 1013.97 1013.70 1013.43 1013.16 1012.88 1012.60 1012.31 1012.02 1011.74 1011.49 1011.29 1011.14 1011.07 1011.05 1011.08 1011.14 1011.18 1011.18 1011.13 1011.01 1010.82 1010.58 1010.32 1010.06 1009.81 1009.60 1009.43 1009.30 1009.23 1009.21 1009.26 1009.37 1009.57 1009.88 1010.30
1015.21 1015.03 1014.85 1014.67 1014.46 1014.23 1013.98 1013.72 1013.45 1013.19 1012.93 1012.68 1012.43 1012.17 1011.90 1011.63 1011.36 1011.11 1010.90 1010.74 1010.63 1010.59 1010.58 1010.60 1010.63 1010.64 1010.61 1010.55 1010.45 1010.32 1010.18 1010.04 1009.92 1009.81 1009.71 1009.64 1009.59 1009.58 1009.60 1009.69 1009.87 1010.15 1010.55
1015.17 1014.91 1014.65 1014.37 1014.08 1013.78 1013.47 1013.17 1012.88 1012.61 1012.35 1012.11 1011.87 1011.63 1011.38 1011.12 1010.87 1010.63 1010.42 1010.26 1010.14 1010.07 1010.05 1010.05 1010.06 1010.07 1010.08 1010.07 1010.04 1010.01 1009.99 1009.96 1009.95 1009.95 1009.94 1009.94 1009.93 1009.94 1009.98 1010.08 1010.25 1010.53 1010.94
1015.09 1014.78 1014.45 1014.10 1013.74 1013.37 1013.00 1012.65 1012.33 1012.03 1011.76 1011.50 1011.26 1011.02 1010.78 1010.54 1010.30 1010.08 1009.88 1009.72 1009.60 1009.52 1009.48 1009.47 1009.48 1009.50 1009.52 1009.55 1009.59 1009.63 1009.70 1009.77 1009.86 1009.94 1010.02 1010.09 1010.15 1010.21 1010.28 1010.41 1010.61 1010.91 1011.33
1014.97 1014.63 1014.26 1013.86 1013.44 1013.02 1012.61 1012.21 1011.85 1011.52 1011.22 1010.94 1010.68 1010.43 1010.18 1009.93 1009.70 1009.48 1009.29 1009.13 1009.01 1008.93 1008.89 1008.88 1008.88 1008.90 1008.94 1009.00 1009.07 1009.17 1009.29 1009.44 1009.59 1009.75 1009.91 1010.05 1010.17 1010.29 1010.42 1010.59 1010.83 1011.17 1011.61
1014.82 1014.47 1014.07 1013.65 1013.20 1012.75 1012.30 1011.88 1011.48 1011.12 1010.79 1010.48 1010.19 1009.90 1009.63 1009.36 1009.11 1008.88 1008.68 1008.52 1008.40 1008.32 1008.28 1008.26 1008.26 1008.29 1008.33 1008.40 1008.50 1008.62 1008.78 1008.97 1009.17 1009.39 1009.60 1009.80 1009.98 1010.16 1010.35 1010.58 1010.87 1011.24 1011.72
1014.63 1014.28 1013.89 1013.45 1013.00 1012.54 1012.08 1011.64 1011.23 1010.84 1010.48 1010.14 1009.81 1009.48 1009.16 1008.86 1008.57 1008.32 1008.10 1007.93 1007.80 1007.71 1007.66 1007.64 1007.64 1007.66 1007.71 1007.78 1007.88 1008.02 1008.20 1008.41 1008.65 1008.90 1009.15 1009.40 1009.64 1009.88 1010.12 1010.40 1010.74 1011.15 1011.65
1014.41 1014.07 1013.68 1013.26 1012.81 1012.36 1011.91 1011.48 1011.07 1010.67 1010.29 1009.91 1009.54 1009.17 1008.80 1008.44 1008.11 1007.82 1007.56 1007.36 1007.21 1007.11 1007.05 1007.02 1007.02 1007.04 1007.09 1007.16 1007.27 1007.42 1007.60 1007.83 1008.09 1008.36 1008.65 1008.94 1009.22 1009.51 1009.80 1010.12 1010.49 1010.93 1011.44
1014.18 1013.84 1013.46 1013.05 1012.62 1012.19 1011.76 1011.34 1010.94 1010.55 1010.15 1009.76 1009.35 1008.94 1008.52 1008.12 1007.74 1007.39 1007.10 1006.86 1006.69 1006.57 1006.49 1006.46 1006.46 1006.48 1006.53 1006.61 1006.73 1006.88 1007.08 1007.31 1007.59 1007.89 1008.20 1008.52 1008.84 1009.16 1009.48 1009.83 1010.22 1010.67 1011.18
1013.93 1013.59 1013.20 1012.80 1012.39 1011.97 1011.57 1011.18 1010.80 1010.42 1010.03 1009.63 1009.21 1008.77 1008.31 1007.87 1007.44 1007.06 1006.73 1006.46 1006.26 1006.12 1006.03 1005.99 1005.99 1006.02 1006.08 1006.17 1006.29 1006.46 1006.67 1006.93 1007.22 1007.54 1007.88 1008.22 1008.57 1008.91 1009.25 1009.61 1010.00 1010.43 1010.93
1013.67 1013.31 1012.91 1012.50 1012.09 1011.70 1011.32 1010.96 1010.61 1010.25 1009.88 1009.49 1009.06 1008.62 1008.15 1007.68 1007.23 1006.82 1006.46 1006.17 1005.95 1005.79 1005.70 1005.65 1005.65 1005.69 1005.76 1005.87 1006.01 1006.20 1006.43 1006.71 1007.02 1007.36 1007.71 1008.07 1008.43 1008.78 1009.12 1009.47 1009.85 1010.26 1010.72
1013.40 1013.00 1012.58 1012.16 1011.75 1011.36 1011.00 1010.66 1010.34 1010.01 1009.67 1009.31 1008.90 1008.47 1008.01 1007.55 1007.10 1006.68 1006.31 1006.01 1005.78 1005.62 1005.52 1005.48 1005.48 1005.52 1005.60 1005.72 1005.89 1006.09 1006.34 1006.63 1006.96 1007.31 1007.68 1008.05 1008.40 1008.75 1009.08 1009.41 1009.75 1010.12 1010.54
1013.11 1012.68 1012.23 1011.79 1011.36 1010.97 1010.62 1010.30 1010.00 1009.71 1009.41 1009.08 1008.72 1008.32 1007.90 1007.46 1007.04 1006.64 1006.29 1006.00 1005.77 1005.61 1005.51 1005.46 1005.46 1005.50 1005.58 1005.71 1005.88 1006.09 1006.34 1006.64 1006.98 1007.33 1007.70 1008.07 1008.42 1008.75 1009.06 1009.36 1009.66 1009.98 1010.35
1012.82 1012.36 1011.88 1011.40 1010.96 1010.57 1010.22 1009.91 1009.64 1009.38 1009.12 1008.84 1008.52 1008.18 1007.81 1007.42 1007.04 1006.68 1006.36 1006.09 1005.88 1005.72 1005.62 1005.57 1005.56 1005.59 1005.66 1005.77 1005.93 1006.13 1006.38 1006.67 1006.99 1007.34 1007.70 1008.05 1008.38 1008.69 1008.97 1009.24 1009.51 1009.79 1010.10
1012.53 1012.04 1011.53 1011.04 1010.58 1010.18 1009.83 1009.54 1009.29 1009.05 1008.83 1008.59 1008.33 1008.04 1007.73 1007.40 1007.08 1006.77 1006.49 1006.25 1006.06 1005.91 1005.80 1005.73 1005.70 1005.71 1005.75 1005.83 1005.96 1006.13 1006.35 1006.62 1006.92 1007.24 1007.58 1007.91 1008.22 1008.51 1008.77 1009.01 1009.24 1009.48 1009.76
1012.24 1011.73 1011.22 1010.72 1010.26 1009.85 1009.51 1009.22 1008.97 1008.76 1008.56 1008.36 1008.14 1007.90 1007.65 1007.38 1007.11 1006.86 1006.62 1006.41 1006.23 1006.08 1005.96 1005.88 1005.81 1005.78 1005.78 1005.82 1005.90 1006.03 1006.21 1006.43 1006.69 1006.99 1007.29 1007.60 1007.89 1008.16 1008.40 1008.63 1008.84 1009.06 1009.31
1011.95 1011.46 1010.95 1010.46 1010.00 1009.60 1009.25 1008.96 1008.72 1008.51 1008.32 1008.14 1007.95 1007.75 1007.54 1007.32 1007.09 1006.88 1006.67 1006.49 1006.32 1006.16 1006.03 1005.91 1005.81 1005.73 1005.68 1005.67 1005.69 1005.77 1005.90 1006.08 1006.31 1006.57 1006.84 1007.13 1007.41 1007.67 1007.91 1008.13 1008.34 1008.56 1008.80
1011.69 1011.22 1010.73 1010.25 1009.81 1009.41 1009.07 1008.78 1008.53 1008.32 1008.12 1007.94 1007.75 1007.57 1007.38 1007.18 1006.98 1006.79 1006.60 1006.43 1006.25 1006.09 1005.93 1005.78 1005.64 1005.52 1005.42 1005.35 1005.33 1005.35 1005.44 1005.58 1005.77 1006.00 1006.26 1006.54 1006.82 1007.08 1007.33 1007.57 1007.79 1008.02 1008.27
1011.43 1010.99 1010.55 1010.10 1009.68 1009.30 1008.96 1008.66 1008.39 1008.16 1007.95 1007.74 1007.55 1007.35 1007.15 1006.96 1006.77 1006.58 1006.39 1006.21 1006.03 1005.84 1005.66 1005.48 1005.30 1005.13 1004.99 1004.88 1004.81 1004.80 1004.85 1004.97 1005.14 1005.36 1005.61 1005.89 1006.18 1006.46 1006.73 1007.00 1007.25 1007.50 1007.77
1011.18 1010.80 1010.39 1009.99 1009.60 1009.23 1008.89 1008.58 1008.30 1008.04 1007.79 1007.56 1007.33 1007.10 1006.89 1006.67 1006.47 1006.26 1006.06 1005.86 1005.66 1005.45 1005.24 1005.02 1004.81 1004.61 1004.43 1004.29 1004.20 1004.17 1004.20 1004.30 1004.46 1004.68 1004.94 1005.24 1005.55 1005.86 1006.17 1006.47 1006.75 1007.04 1007.33
1010.94 1010.61 1010.26 1009.90 1009.54 1009.19 1008.86 1008.54 1008.24 1007.95 1007.66 1007.39 1007.12 1006.86 1006.61 1006.37 1006.13 1005.90 1005.68 1005.45 1005.22 1004.98 1004.74 1004.49 1004.25 1004.02 1003.82 1003.66 1003.55 1003.51 1003.53 1003.63 1003.80 1004.03 1004.31 1004.63 1004.97 1005.31 1005.65 1005.99 1006.31 1006.63 1006.94
1010.71 1010.44 1010.15 1009.83 1009.51 1009.19 1008.86 1008.54 1008.22 1007.90 1007.58 1007.27 1006.97 1006.68 1006.39 1006.11 1005.85 1005.59 1005.33 1005.07 1004.80 1004.53 1004.26 1003.98 1003.71 1003.45 1003.23 1003.06 1002.94 1002.89 1002.92 1003.02 1003.20 1003.44 1003.74 1004.08 1004.44 1004.81 1005.19 1005.55 1005.90 1006.24 1006.58
1010.48 1010.28 1010.05 1009.79 1009.51 1009.21 1008.90 1008.58 1008.25 1007.91 1007.58 1007.24 1006.92 1006.60 1006.29 1005.98 1005.69 1005.40 1005.11 1004.81 1004.51 1004.21 1003.89 1003.58 1003.28 1003.00 1002.75 1002.56 1002.43 1002.37 1002.40 1002.50 1002.68 1002.93 1003.24 1003.58 1003.96 1004.35 1004.74 1005.12 1005.49 1005.85 1006.19
1010.27 1010.14 1009.97 1009.76 1009.52 1009.26 1008.97 1008.65 1008.33 1007.99 1007.65 1007.32 1006.98 1006.66 1006.34 1006.02 1005.71 1005.40 1005.08 1004.76 1004.42 1004.08 1003.72 1003.37 1003.03 1002.71 1002.44 1002.22 1002.07 1001.99 1002.00 1002.08 1002.25 1002.49 1002.79 1003.13 1003.51 1003.89 1004.28 1004.67 1005.04 1005.40 1005.74
1010.06 1010.00 1009.89 1009.75 1009.55 1009.32 1009.06 1008.77 1008.46 1008.14 1007.82 1007.49 1007.17 1006.86 1006.55 1006.24 1005.93 1005.61 1005.27 1004.92 1004.55 1004.17 1003.77 1003.37 1002.99 1002.63 1002.31 1002.05 1001.86 1001.75 1001.73 1001.79 1001.92 1002.13 1002.40 1002.72 1003.07 1003.43 1003.81 1004.18 1004.54 1004.89 1005.23
1009.84 1009.86 1009.83 1009.73 1009.59 1009.40 1009.17 1008.91 1008.63 1008.34 1008.05 1007.75 1007.47 1007.18 1006.90 1006.61 1006.30 1005.99 1005.64 1005.27 1004.88 1004.45 1004.02 1003.58 1003.14 1002.73 1002.37 1002.06 1001.82 1001.66 1001.59 1001.60 1001.69 1001.85 1002.07 1002.34 1002.65 1002.98 1003.32 1003.67 1004.01 1004.34 1004.67
Thickness
5643 5638 5633 5629 5625 5620 5616 5612 5609 5607 5605 5603 5601 5600 5599 5599 5599 5599 5600 5601 5603 5605 5607 5609 5612 5616 5619 5622 5626 5630 5634 5639 5645 5651 5657 5664 5670 5677 5682 5688 5693 5696 5700
5636 5631 5626 5621 5616 5611 5608 5604 5601 5599 5597 5594 5593 5591 5591 5591 5590 5590 5590 5592 5593 5594 5596 5598 5602 5605 5608 5612 5615 5620 5625 5630 5636 5641 5646 5652 5660 5667 5673 5678 5684 5688 5692
5629 5624 5618 5613 5608 5604 5600 5597 5594 5591 5588 5586 5584 5582 5582 5581 5581 5581 5581 5582 5583 5584 5586 5588 5592 5594 5598 5602 5606 5610 5615 5620 5625 5631 5637 5642 5649 5656 5662 5668 5674 5678 5683
5622 5617 5611 5606 5601 5597 5593 5590 5586 5583 5580 5578 5575 5574 5573 5572 5572 5571 5571 5572 5573 5574 5576 5578 5581 5584 5588 5591 5596 5600 5604 5609 5614 5620 5626 5631 5638 5645 5652 5657 5661 5667 5672
5615 5610 5605 5600 5595 5590 5586 5582 5578 5575 5573 5570 5567 5566 5564 5563 5564 5563 5562 5563 5563 5564 5565 5567 5570 5573 5578 5581 5586 5591 5594 5598 5603 5608 5615 5621 5627 5634 5641 5648 5652 5656 5661
5609 5604 5599 5594 5589 5584 5579 5575 5571 5567 5565 5562 5559 5558 5556 5556 5556 5555 5554 5553 5553 5554 5555 5557 5559 5562 5567 5571 5576 5581 5585 5589 5594 5599 5605 5611 5619 5626 5632 5638 5642 5647 5651
5604 5599 5594 5588 5583 5578 5574 5569 5565 5561 5557 5554 5552 5550 5548 5548 5546 5546 5545 5544 5543 5544 5545 5546 5549 5554 5556 5560 5564 5570 5575 5581 5587 5592 5597 5604 5611 5619 5624 5629 5634 5640 5646
5599 5594 5589 5583 5577 5572 5567 5562 5558 5554 5550 5547 5545 5543 5541 5541 5539 5538 5536 5535 5535 5535 5535 5536 5538 5541 5545 5547 5552 5557 5563 5570 5577 5584 5591 5597 5603 5609 5615 5622 5628 5630 5634
5595 5589 5583 5577 5572 5567 5562 5557 5553 5548 5544 5541 5539 5536 5534 5534 5532 5530 5528 5527 5526 5526 5526 5527 5528 5531 5534 5536 5540 5546 5552 5558 5564 5571 5579 5586 5592 5599 5605 5611 5616 5620 5625
5591 5585 5579 5573 5567 5562 5557 5553 5548 5543 5539 5536 5534 5531 5528 5527 5525 5523 5521 5519 5518 5518 5518 5519 5520 5521 5524 5526 5530 5535 5541 5547 5553 5559 5565 5573 5581 5588 5595 5603 5610 5614 5619
5587 5581 5575 5569 5563 5559 5554 5549 5544 5540 5535 5532 5529 5527 5524 5522 5520 5518 5515 5513 5512 5511 5511 5512 5513 5513 5515 5517 5521 5526 5532 5537 5542 5548 5555 5562 5569 5577 5585 5593 5600 5607 5612
5584 5577 5572 5566 5561 5558 5551 5547 5542 5536 5532 5529 5525 5523 5521 5519 5516 5514 5511 5509 5507 5505 5506 5506 5507 5506 5508 5509 5512 5517 5521 5525 5531 5538 5545 5552 5561 5569 5576 5583 5590 5598 5605
5581 5575 5569 5564 5559 5554 5548 5544 5539 5534 5529 5526 5523 5520 5519 5516 5513 5510 5508 5506 5504 5502 5502 5501 5501 5501 5501 5503 5505 5509 5512 5518 5524 5530 5538 5545 5553 5560 5566 5573 5579 5586 5593
5578 5573 5568 5563 5558 5553 5548 5542 5538 5533 5529 5525 5521 5519 5516 5514 5511 5508 5505 5503 5501 5500 5499 5498 5497 5497 5497 5499 5501 5504 5508 5514 5519 5525 5531 5537 5542 5549 5557 5564 5570 5576 5582
5577 5571 5566 5561 5556 5552 5548 5543 5538 5534 5527 5523 5521 5517 5514 5513 5510 5505 5501 5501 5499 5498 5496 5496 5496 5496 5497 5497 5499 5501 5504 5508 5513 5518 5524 5529 5535 5542 5549 5556 5563 5569 5575
5575 5570 5565 5560 5556 5551 5546 5544 5541 5535 5530 5525 5520 5515 5513 5510 5507 5504 5501 5499 5497 5495 5494 5496 5496 5497 5497 5498 5499 5500 5502 5506 5510 5514 5519 5524 5530 5536 5542 5548 5555 5563 5570
5573 5568 5564 5559 5554 5550 5546 5542 5539 5537 5533 5529 5524 5519 5515 5511 5508 5505 5503 5500 5498 5495 5495 5496 5496 5497 5497 5498 5499 5500 5502 5505 5508 5511 5516 5520 5525 5530 5537 5543 5550 5557 5563
5573 5568 5563 5558 5553 5549 5545 5541 5537 5533 5531 5530 5526 5521 5517 5513 5510 5507 5504 5501 5500 5497 5497 5496 5496 5497 5497 5498 5500 5501 5503 5504 5506 5509 5513 5517 5521 5526 5532 5539 5545 5552 5558
5572 5567 5563 5558 5553 5549 5545 5541 5538 5533 5530 5527 5525 5523 5519 5515 5512 5509 5505 5503 5502 5500 5499 5497 5497 5497 5498 5499 5500 5502 5504 5505 5507 5509 5512 5515 5518 5523 5529 5535 5541 5545 5552
5570 5567 5563 5558 5553 5549 5546 5542 5538 5534 5531 5528 5525 5523 5519 5517 5515 5512 5509 5506 5504 5502 5501 5499 5499 5498 5499 5500 5502 5503 5505 5506 5507 5509 5512 5514 5517 5521 5527 5532 5538 5543 5548
5569 5565 5562 5557 5553 5549 5545 5541 5537 5533 5530 5528 5525 5522 5517 5517 5515 5513 5512 5509 5507 5506 5504 5502 5501 5500 5500 5501 5502 5504 5506 5508 5509 5511 5513 5515 5518 5521 5525 5530 5535 5540 5544
5567 5563 5559 5555 5552 5548 5545 5541 5537 5533 5530 5528 5526 5524 5520 5518 5517 5515 5514 5512 5510 5509 5507 5506 5505 5505 5504 5504 5504 5506 5507 5509 5511 5513 5515 5517 5519 5522 5525 5529 5533 5537 5541
5566 5562 5558 5554 5550 5547 5544 5541 5537 5534 5531 5528 5526 5524 5522 5519 5518 5516 5516 5514 5513 5512 5510 5509 5508 5508 5507 5507 5507 5508 5510 5512 5513 5515 5517 5519 5521 5523 5526 5529 5532 5535 5539
5563 5560 5556 5553 5549 5546 5543 5539 5536 5534 5531 5529 5526 5524 5522 5520 5519 5517 5516 5515 5515 5514 5513 5512 5511 5511 5510 5510 5510 5511 5512 5514 5515 5517 5519 5521 5523 5525 5527 5529 5532 5535 5539
5561 5557 5554 5550 5547 5544 5541 5538 5535 5533 5531 5529 5526 5524 5522 5521 5519 5518 5517 5516 5516 5515 5515 5514 5513 5513 5513 5512 5513 5513 5514 5515 5517 5519 5520 5522 5524 5527 5529 5531 5533 5536 5539
5558 5554 5551 5547 5544 5542 5539 5536 5534 5532 5529 5528 5526 5524 5522 5520 5519 5518 5517 5516 5516 5516 5516 5515 5515 5515 5515 5515 5515 5515 5515 5516 5518 5519 5522 5524 5526 5528 5530 5532 5535 5537 5540